Location: Ferchesar
(52.6477°N, 12.4298°E)
Time: 08:08:44
(UTC+01:00)

S-56A Canister/Altair - Pass Details

Date: 15 December 2021
Orbit: 633 x 2499 km, 38.9° (Epoch: 19 January)

Event Time Altitude Azimuth Distance (km) Brightness Sun altitude
Rises 21:38:12 0° 242° (WSW) 6,105 12.4 -49.5°
Reaches altitude 10° 21:42:45 10° 236° (SW) 4,971 11.8 -50.1°
Enters shadow 21:47:49 23° 224° (SW) 3,767 10.9 -50.7°
Maximum altitude 21:54:53 39° 175° (S) 2,674 - -51.6°
Drops below altitude 10° 22:03:51 10° 111° (ESE) 3,690 - -52.6°
Sets 22:06:41 0° 104° (ESE) 4,428 - -53.0°
